SL-12 DEB, 48417

Orbit data source: Space-Track

SL-12 DEB, 48417 is space debris in HEO originally from a launch on Sat, 19 May 1990 UTC launched from the Tyuratam Missile And Space Complex (TTMTR). Debris objects in space refer to the collection of defunct objects orbiting the Earth. Examples of debris include non-operational satellites, rocket bodies, and fragments generated from explosions, collisions, or faulty payload assembly.

Loading next visibility...
Identifier
48417, 1990-045J
Orbit
HEO
Country
Flag of CISCIS
Related business
Manufacturer
RKKE
Mission
Spacecraft
Bus & Motor
Unknown
Mass
Unknown
Launch date (UTC)
1990-05-19 (36 years ago)
Launch vehicle
Unknown
Launch site
Tyuratam Missile And Space Complex (TTMTR)
Object type
Payload
Rocket body
Debris
Shape & HBR
Unknown shape, 0.4 m
Radar Cross Section
Medium (>0.1 m² and <1 m²)

Expand to show TLE details & history
Last TLE update: 2 days ago

TLE from 2 days ago
0 SL-12 DEB
1 48417U 90045J   26171.15564257  .00002430  00000-0  26817-2 0  9999
2 48417  65.1130  14.9084 5427714  41.2299 349.1540  4.77548521211671
Epoch: 2026-06-20T03:44Z
TLE epoch observation values (Epoch: 2026-06-20T03:44:07.518Z)
Latitude
-0.00015°
Longitude
50.50128°
Altitude
1,079.414 km
Speed
8.953 km/s
True Right ascension
00h 59m 37s
True Declination
0° 00' 01"
Sunlit
Object was in daylight at epoch
Visualization orbit readout
Latitude
Unknown
Longitude
Unknown
Altitude
Unknown
Speed
Unknown
Apparent Right ascension
Unknown
Apparent Declination
Unknown
Sunlit
N/A
Visualization observer readout
Local Sidereal Time
21:24:42
Azimuth
Unknown
Elevation
Unknown
Doppler factor
Unknown
Orbital elements
Apogee altitude
16,600.517 km
Perigee altitude
432.009 km
Semi-major axis
14,894.4 km
Eccentricity
0.54277
Inclination
65.113°
RAAN
14.9084°
Arg. of periapsis
41.2299°
True anomaly
319.02607°
Mean anomaly
349.154°
Eccentric anomaly
337.00568°
Mean motion
1.19401 °/min
Orbital period
301.5 mins
BSTAR
0.0026817
Loading maneuver chart data...
Computing Atmospheric mass density...
Loading historical data...
Loading historical data...
Loading historical data...
Loading historical data...
Loading historical data...
Loading historical data...
Loading historical data...

Documentation

Showing up to 5 results
|